FW1075 Weather Reports


time (UTC)temp
C
wind
direction
speed
KPH
gust
KPH
rain 1hr
cm
rain 24hr
cm
rain mn
cm
humidity
%
barometer
mb
20260508133144 15 292 8.0 12.9 0.00 0.00 0.00 54 1010.8
20260508132123 15 334 6.4 11.3 0.00 0.00 0.00 57 1010.8
20260508131123 14 280 6.4 9.7 0.00 0.00 0.00 59 1011.0
20260508130121 14 297 6.4 16.1 0.00 0.00 0.00 59 1010.9
20260508125121 13 306 8.0 12.9 0.00 0.00 0.00 60 1010.9
20260508124121 13 304 8.0 14.5 0.00 0.00 0.00 64 1011.0
20260508123121 13 286 8.0 14.5 0.00 0.00 0.00 63 1011.2
20260508122121 13 316 6.4 12.9 0.00 0.00 0.00 66 1011.2
20260508121123 13 304 4.8 9.7 0.00 0.00 0.00 69 1011.1
20260508120143 12 305 6.4 11.3 0.00 0.00 0.00 70 1011.0
20260508115123 12 286 4.8 6.4 0.00 0.00 0.00 72 1011.0
20260508114121 12 325 4.8 11.3 0.00 0.00 0.00 72 1011.0
20260508113121 12 315 4.8 8.0 0.00 0.00 0.00 74 1010.8
20260508112122 11 318 6.4 9.7 0.00 0.00 0.00 77 1010.8
20260508111121 11 312 4.8 9.7 0.00 0.00 0.00 77 1010.6
20260508110121 10 322 3.2 6.4 0.00 0.00 0.00 80 1010.5
20260508105123 10 295 1.6 3.2 0.00 0.00 0.00 86 1010.5
20260508104123 8 270 0.0 1.6 0.00 0.00 0.00 90 1010.4
20260508103123 7 289 0.0 3.2 0.00 0.00 0.00 94 1010.2
20260508102121 7 253 0.0 3.2 0.00 0.00 0.00 93 1010.2
20260508101122 7 296 3.2 6.4 0.00 0.00 0.00 93 1010.1
20260508100122 8 305 3.2 8.0 0.00 0.00 0.00 91 1010.0
20260508095143 8 300 3.2 8.0 0.00 0.00 0.00 91 1010.0
20260508094122 8 326 3.2 4.8 0.00 0.00 0.00 89 1009.7
20260508093146 8 21 4.8 8.0 0.00 0.00 0.00 89 1009.7
20260508092124 8 330 4.8 8.0 0.00 0.00 0.00 89 1009.8
20260508091122 8 331 4.8 9.7 0.00 0.00 0.00 88 1009.7
20260508090121 8 313 6.4 8.0 0.00 0.00 0.00 88 1009.6
20260508085123 8 333 4.8 8.0 0.00 0.03 0.00 88 1009.6
20260508084121 8 332 4.8 9.7 0.00 0.03 0.00 87 1009.5
20260508083122 8 338 6.4 11.3 0.00 0.03 0.00 86 1009.4
20260508082146 8 337 4.8 9.7 0.00 0.03 0.00 85 1009.4
20260508081124 8 351 6.4 12.9 0.00 0.03 0.00 85 1009.1
20260508080142 8 18 6.4 12.9 0.00 0.03 0.00 82 1009.1
20260508075121 8 336 4.8 8.0 0.00 0.03 0.00 81 1009.1
20260508074123 8 327 4.8 11.3 0.00 0.03 0.00 80 1009.2
20260508073142 9 321 6.4 11.3 0.00 0.03 0.00 79 1009.2
20260508072121 9 347 6.4 14.5 0.00 0.03 0.00 77 1009.2
20260508071123 10 332 6.4 11.3 0.00 0.03 0.00 73 1009.2
20260508070146 10 11 6.4 11.3 0.00 0.05 0.00 72 1009.2
20260508065121 10 321 6.4 12.9 0.00 0.05 0.00 75 1009.2
20260508064121 10 2 4.8 11.3 0.00 0.13 0.00 84 1009.2
20260508063122 10 329 6.4 9.7 0.00 0.20 0.00 77 1009.4
20260508062143 9 310 4.8 9.7 0.00 0.28 0.00 74 1008.5
20260508061143 7 344 0.0 3.2 0.00 0.36 0.00 92 1007.9
20260508060122 7 74 1.6 3.2 0.00 0.38 0.00 96 1007.8
20260508055145 7 86 1.6 3.2 0.00 0.38 0.00 99 1007.8
20260508054126 7 93 1.6 4.8 0.00 0.38 0.00 99 1007.7
20260508053125 7 90 0.0 0.0 0.00 0.38 0.00 99 1007.5
20260508052123 7 223 0.0 3.2 0.00 0.38 0.00 99 1007.6
20260508051121 7 56 0.0 3.2 0.00 0.38 0.00 99 1007.2
20260508050142 7 135 0.0 0.0 0.00 0.38 0.00 99 1007.5
20260508045121 7 90 0.0 0.0 0.00 0.38 0.00 99 1007.5
20260508044121 7 45 0.0 0.0 0.00 0.38 0.00 99 1007.4
20260508043121 7 270 0.0 0.0 0.00 0.38 0.00 99 1007.2
20260508042121 7 113 0.0 0.0 0.00 0.38 0.00 98 1007.2
20260508041122 8 180 0.0 0.0 0.00 0.38 0.00 98 1007.5
20260508040121 8 203 0.0 0.0 0.00 0.38 0.00 98 1007.6
20260508035121 8 23 0.0 0.0 0.00 0.38 0.38 98 1007.6
20260508034142 8 68 0.0 0.0 0.00 0.38 0.38 97 1007.6
20260508033127 8 180 0.0 0.0 0.00 0.38 0.38 95 1007.7
20260508032127 8 203 0.0 0.0 0.00 0.38 0.38 96 1007.7
20260508031121 8 338 0.0 0.0 0.00 0.38 0.38 94 1007.6
20260508030123 8 270 0.0 0.0 0.00 0.38 0.38 93 1007.6
20260508025122 8 99 0.0 3.2 0.00 0.41 0.38 93 1007.6
20260508024123 8 113 0.0 0.0 0.00 0.41 0.38 90 1007.7
20260508023122 8 315 0.0 0.0 0.00 0.41 0.38 88 1007.6
20260508022123 9 113 0.0 0.0 0.00 0.41 0.38 86 1007.6
20260508021145 9 73 0.0 1.6 0.00 0.43 0.38 86 1007.5
20260508020123 10 102 0.0 3.2 0.00 0.46 0.38 84 1007.5
20260508015148 10 135 0.0 0.0 0.00 0.46 0.38 81 1007.5
20260508014128 10 237 0.0 3.2 0.00 0.46 0.38 81 1007.6
20260508013122 11 204 1.6 3.2 0.00 0.51 0.38 81 1007.5
20260508012142 11 212 1.6 4.8 0.00 0.51 0.38 79 1007.5
20260508011123 11 110 1.6 4.8 0.00 0.51 0.38 77 1007.2
20260508010121 12 212 3.2 6.4 0.00 0.51 0.38 75 1007.1
20260508005143 12 190 1.6 4.8 0.00 0.51 0.38 73 1007.1
20260508004122 12 266 1.6 3.2 0.00 0.51 0.38 69 1006.9
20260508003123 13 257 0.0 4.8 0.00 0.51 0.38 56 1006.6
20260508002143 13 23 0.0 1.6 0.00 0.51 0.38 53 1006.5
20260508001122 14 73 1.6 3.2 0.00 0.51 0.38 48 1006.4
20260508000121 14 38 3.2 4.8 0.00 0.51 0.38 47 1006.4
20260507235122 15 320 3.2 4.8 0.00 0.51 0.38 46 1006.4
20260507234121 15 320 4.8 8.0 0.00 0.51 0.38 44 1006.1
20260507233121 16 288 6.4 12.9 0.00 0.51 0.38 43 1006.1
20260507232121 16 335 6.4 12.9 0.00 0.51 0.38 43 1006.0
20260507231122 16 307 6.4 9.7 0.00 0.51 0.38 42 1005.9
20260507230122 16 279 6.4 11.3 0.00 0.51 0.38 42 1005.9
20260507225122 16 323 6.4 9.7 0.00 0.51 0.38 42 1005.9
20260507224126 16 308 8.0 14.5 0.00 0.51 0.38 41 1005.8
20260507223121 17 297 8.0 12.9 0.00 0.51 0.38 41 1005.9
20260507222122 17 312 6.4 12.9 0.00 0.51 0.38 40 1005.9
20260507221121 17 296 8.0 16.1 0.00 0.51 0.38 39 1005.9
20260507220121 17 300 8.0 14.5 0.00 0.51 0.38 39 1005.8
20260507215125 18 298 6.4 17.7 0.00 0.51 0.38 39 1005.8
20260507214122 18 318 8.0 16.1 0.00 0.51 0.38 38 1005.7
20260507213123 18 328 9.7 17.7 0.00 0.51 0.38 39 1005.6
20260507212126 19 333 9.7 16.1 0.00 0.51 0.38 37 1005.6
20260507211122 20 337 8.0 16.1 0.00 0.51 0.38 36 1005.5
20260507210121 20 299 8.0 14.5 0.00 0.51 0.38 35 1005.7
20260507205121 20 270 9.7 19.3 0.00 0.51 0.38 35 1005.7
20260507204131 20 309 8.0 11.3 0.00 0.51 0.38 36 1005.6
20260507204122 20 311 8.0 11.3 0.00 0.51 0.38 36 1005.6
20260507203122 20 12 6.4 9.7 0.00 0.51 0.38 36 1005.7
20260507202122 21 28 6.4 9.7 0.00 0.51 0.38 36 1005.8
20260507201121 20 293 6.4 16.1 0.00 0.51 0.38 36 1005.6
20260507200124 20 313 8.0 11.3 0.00 0.51 0.38 37 1005.8
20260507195121 20 336 6.4 11.3 0.00 0.51 0.38 37 1005.8
20260507194121 20 35 6.4 11.3 0.00 0.51 0.38 37 1005.9
20260507193121 20 317 8.0 16.1 0.00 0.53 0.38 37 1006.0
20260507192121 20 355 6.4 12.9 0.00 0.56 0.38 37 1006.1
20260507191124 20 309 6.4 12.9 0.00 0.56 0.38 37 1006.2
20260507190121 20 103 6.4 11.3 0.00 0.56 0.38 37 1006.2
20260507185148 20 328 8.0 12.9 0.00 0.56 0.38 35 1006.4
20260507184121 19 74 8.0 20.9 0.00 0.56 0.38 38 1006.5
20260507183123 20 0 6.4 12.9 0.00 0.56 0.38 39 1006.6
20260507182122 20 302 8.0 16.1 0.00 0.56 0.38 37 1006.8
20260507181144 19 329 8.0 16.1 0.00 0.56 0.38 39 1007.1
20260507180122 19 297 6.4 12.9 0.00 0.56 0.38 39 1007.1
20260507175122 19 300 8.0 14.5 0.00 0.56 0.38 39 1007.2
20260507174122 19 326 4.8 9.7 0.00 0.56 0.38 41 1007.1
20260507173122 19 19 6.4 14.5 0.00 0.56 0.38 41 1007.2
20260507172144 18 29 6.4 9.7 0.00 0.58 0.38 43 1007.5
20260507171121 19 298 6.4 14.5 0.00 0.58 0.38 43 1007.6
20260507170121 18 302 8.0 14.5 0.00 0.58 0.38 44 1007.8
20260507165121 18 338 6.4 11.3 0.00 0.61 0.38 46 1007.8
20260507164124 18 310 6.4 12.9 0.00 0.61 0.38 50 1007.8
20260507163122 17 336 8.0 14.5 0.00 0.61 0.38 53 1008.1
20260507162144 18 302 6.4 16.1 0.00 0.61 0.38 53 1008.2
20260507161121 17 23 8.0 12.9 0.00 0.61 0.38 54 1008.5
20260507160121 18 329 4.8 14.5 0.00 0.61 0.38 55 1008.6
20260507155145 17 0 8.0 16.1 0.00 0.61 0.38 56 1008.6
20260507154122 17 337 6.4 11.3 0.00 0.61 0.38 60 1008.6
20260507153121 16 307 6.4 14.5 0.00 0.61 0.38 57 1008.8
20260507152121 16 322 6.4 14.5 0.00 0.61 0.38 60 1008.8
20260507151121 16 326 6.4 11.3 0.00 0.61 0.38 62 1008.9
20260507150121 15 321 4.8 9.7 0.00 0.61 0.38 67 1008.9
20260507145127 15 309 6.4 11.3 0.00 0.61 0.38 66 1009.1
20260507144123 15 314 6.4 11.3 0.00 0.61 0.38 68 1009.0
20260507143146 15 326 4.8 9.7 0.00 0.61 0.38 73 1008.9
20260507142124 14 314 4.8 9.7 0.00 0.61 0.38 78 1009.0
20260507141122 14 319 6.4 14.5 0.00 0.61 0.38 78 1009.0
20260507140122 13 336 4.8 9.7 0.00 0.61 0.38 83 1009.0
20260507135122 12 304 8.0 14.5 0.00 0.61 0.38 84 1009.0
20260507134122 13 316 6.4 12.9 0.00 0.61 0.38 80 1008.9